Погода в Сосновке

Россия / Республика Тыва     51°08′23″N   94°31′15″E
темп.,
°C
ветер,
м/с
пор.,
м/с
влажн.,
%
обл.,
%
осадки,
мм/ч
давл.,
гПа
погр.,
м
22 января, пт
пт2201:00−22сз019890 0.0 102520
04:00−23з019970 0.0 102420
07:00−22ссв119884 0.0 102320
10:00−21сз239996 0.0 102235
13:00−18ссв219998 0.0 101950
16:00−19с1199100 0.0 101820
19:00−20с1199100 0.0 102020
22:00−20ссз2297100 0.0 101920
23 января, сб
сб2301:00−20ссз1198100 0.0 102020
04:00−20сз2298100 0.0 102022
07:00−18юз1195100 0.0 102320
10:00−14ссв1194100 0.6 102667
13:00−13сз1190100 0.9 1027119
16:00−12ссз1195100 0.3 102879
19:00−13зсз1196100 1.0 103121
22:00−14св0195100 0.3 103321
24 января, вс
вс2401:00−16юз0197100 0.3 103320
04:00−16сз1197100 0.1 103320
07:00−16сз1297100 0.3 103320
10:00−16зсз1196100 0.4 103375
13:00−14сз2394100 0.6 1032202
16:00−14зсз1195100 0.4 1032124
19:00−15з0197100 0.7 103420
22:00−17ю0198100 0.3 103520
25 января, пн
пн2501:00−16вюв1294100 0.4 103520
04:00−19в1191100 0.1 103520
07:00−21в0194100 0.1 103420
10:00−20сз1298100 0.0 103520
13:00−18з1298100 0.0 1033134
16:00−18з1196100 0.0 103422
19:00−19зюз1291100 0.0 103720
22:00−20з2286100 0.0 103920
26 января, вт
вт2601:00−25ююз119094 0.0 104020
04:00−26юз018861 0.0 104120
07:00−27с019281 0.0 104119
10:00−27ссв009189 0.0 104219
13:00−24ссв119673 0.0 103972
16:00−25з0195100 0.0 103920
19:00−25ю0092100 0.0 104119
22:00−28ссв0196100 0.0 104219